Location: Conty
(49.7410°N, 2.1512°E)
Time: 00:30:48
(UTC+00:00)

Daily predictions for brighter satellites

Satellite Brightness Start Highest point End
(mag) Time Altitude Azimuth Time Altitude Azimuth Time Altitude Azimuth
Cosmos 2082 Rocket 4.4 00:08:03 10° WNW 00:09:43 11° W 00:11:22 10° WSW
Cosmos 2221 2.4 00:07:07 10° N 00:11:24 87° W 00:12:32 49° S
Cosmos 2369 Rocket 2.3 00:15:02 29° SW 00:17:59 73° WNW 00:23:38 10° NNE
Cosmos 2173 Rocket 3.9 00:18:04 33° S 00:20:55 76° E 00:27:02 10° NNE
CENTAUR R/B 3.2 00:13:05 10° NW 00:21:16 89° SW 00:30:33 10° SE
SL-8 R/B 3.6 00:21:56 25° WSW 00:24:41 65° SSE 00:29:27 10° E
Cosmos 1862 4.4 00:25:47 28° WSW 00:26:52 34° WNW 00:30:25 10° N
Cosmos 44 Rocket 4.0 00:26:14 34° SSE 00:27:35 42° ESE 00:32:18 10° NE
NOSS 2-1 (C) 4.2 00:29:07 25° ESE 00:29:07 25° ESE 00:31:11 10° ENE
BREEZE-M DEB (TANK) 3.6 00:28:18 38° SSE 00:28:42 40° SE 00:36:10 10° ENE
Cosmos 2151 2.9 00:28:00 47° S 00:29:08 78° E 00:33:24 10° NNE
Cosmos 1624 Rocket 4.3 00:28:37 30° SW 00:31:09 63° WNW 00:36:23 10° NNE
Iridium 4 Rocket 4.1 00:27:43 10° N 00:33:24 58° W 00:36:02 32° SSW
H-2A R/B 2.1 00:30:58 10° N 00:34:58 64° WNW 00:36:11 42° SW
Cosmos 2297 Rocket 3.9 00:31:51 10° NNW 00:36:53 31° NE 00:41:53 10° ESE
Meteor 2-21 Rocket 4.5 00:32:06 10° NNW 00:38:14 70° W 00:41:12 32° S
Cosmos 2263 4.4 00:36:04 28° SW 00:39:11 69° WNW 00:44:58 10° NNE
Cosmos 1850 Rocket 4.0 00:34:12 10° NNW 00:39:27 85° ENE 00:42:17 28° SSE
Cosmos 1076 Rocket 3.6 00:38:29 41° SSE 00:39:51 66° E 00:44:11 10° NNE
Cosmos 1340 Rocket 2.6 00:37:06 10° NNW 00:41:00 78° W 00:41:54 51° S
Cosmos 1825 Rocket 4.0 00:40:45 36° SW 00:42:10 51° WNW 00:46:23 10° N
Okean 1 3.7 00:40:58 10° N 00:44:41 53° ENE 00:46:00 34° SE
Cosmos 1452 Rocket 3.7 00:43:06 34° S 00:45:13 59° ESE 00:50:23 10° NNE
Cosmos 2056 Rocket 4.2 00:42:45 24° WSW 00:45:41 48° WNW 00:50:45 10° NNE
USA 59 Rocket -0.2 00:50:38 42° ESE 00:50:38 42° ESE 00:53:21 10° NE
Lacrosse 4 Rocket 2.1 00:50:57 26° WSW 00:52:50 46° NW 00:56:51 10° NNE
Meteor 2-8 Rocket 4.4 00:53:23 31° SSW 00:56:29 80° W 01:02:35 10° N
Cosmos 1953 Rocket 3.9 00:56:15 36° SW 00:57:52 58° WNW 01:02:18 10° N
Lacrosse 5 rocket 1.7 00:58:00 22° W 01:00:17 58° NNW 01:04:16 10° NE
USA 281 4.1 00:58:23 25° SW 01:00:49 32° WSW 01:06:36 10° NW
USA 229 DEB 4.4 00:55:15 10° WSW 01:01:22 49° NW 01:08:10 10° NE
NOSS 3-2 (A) 4.0 00:54:04 10° NW 01:01:24 79° SW 01:10:05 10° SSE
USA 229 4.4 00:55:23 10° WSW 01:01:30 50° NW 01:08:18 10° NE
Meteor 1-20 Rocket 4.4 00:58:40 28° S 01:01:38 64° E 01:07:09 10° NNE
SL-27 R/B 4.4 00:59:55 10° WNW 01:00:40 13° WNW 01:00:40 13° WNW
Cosmos 482 Debris 3.7 01:01:03 10° WNW 01:04:51 80° NNE 01:07:37 10° ESE
Cosmos 1331 Rocket 3.9 01:04:18 33° SSW 01:06:39 81° ESE 01:11:50 10° NNE
Cosmos 1626 3.8 01:05:37 10° NNE 01:08:13 23° ENE 01:10:11 13° ESE
COBE Rocket 3.9 01:06:01 10° NNE 01:10:58 78° ESE 01:13:15 32° S
CZ-2C R/B 3.4 01:05:56 11° SE 01:11:04 53° ENE 01:16:31 10° N
ATLAS 5 CENTAUR R/B 4.0 01:07:24 10° NNW 01:11:14 27° NNE 01:15:47 10° E
SJ 16-02 1.3 01:08:20 10° NNW 01:12:44 83° ENE 01:15:14 25° SSE
NOSS 2-1 (E) 2.5 01:13:34 59° SSW 01:14:02 78° SE 01:17:03 10° NE
CZ-4C R/B 4.5 01:09:37 10° WNW 01:14:32 18° WSW 01:16:37 17° SW
ATLAS 3B R/B 4.5 01:08:42 10° W 01:15:25 34° NNW 01:22:25 10° NE
MOZ.5/SAFIR/RUBIN 5/SL-8 3.7 01:16:45 26° SSE 01:19:21 88° ENE 01:24:02 10° NNW
CZ-2D R/B 3.3 01:15:10 10° NNE 01:19:51 33° E 01:23:30 15° SSE
SL-08 R/B 4.5 01:17:34 27° SSW 01:21:04 75° W 01:27:21 10° N
Cosmos 1741 Rocket 4.3 01:16:43 10° NNW 01:21:47 48° WSW 01:24:03 29° SSW
Cosmos 2016 Rocket 4.2 01:21:04 26° SSW 01:24:44 63° WNW 01:31:02 10° N
Uosat 12 SS-18 rocket 3.9 01:21:01 10° NW 01:25:19 74° SW 01:28:48 16° SSE
Cosmos 2233 Rocket 4.0 01:22:17 26° S 01:26:05 85° W 01:32:23 10° N
NOSS 2-1 (D) 2.8 01:27:02 41° WSW 01:27:59 70° NW 01:31:00 10° NE
Gblst 52 Del rocket 4.2 01:22:39 10° W 01:28:09 79° N 01:33:50 10° ENE
NOSS 7 (H) 4.0 01:25:30 10° NW 01:28:26 74° SW 01:30:02 28° SSE
ASTEX 1 3.8 01:30:27 29° SSW 01:32:41 49° W 01:37:30 10° NNW
Cosmos 1151 Rocket 3.2 01:29:37 10° N 01:33:58 72° ENE 01:36:54 20° SSE
Meteor 1-27 Rocket 3.9 01:28:23 10° NNW 01:34:10 64° W 01:37:38 24° S
NOSS 3-2 (C) 4.0 01:28:08 10° NW 01:35:28 89° SW 01:44:11 10° SE
Lacrosse 5 1.8 01:30:54 10° WNW 01:35:57 67° SW 01:40:59 10° SE
Cosmos 1725 Rocket 4.4 01:32:37 24° SW 01:36:23 52° WNW 01:42:34 10° N
COSMOS 2455 4.0 01:32:26 10° WNW 01:37:08 24° WSW 01:38:45 21° SW
USA 234 3.5 01:31:10 10° ENE 01:37:35 53° SE 01:41:40 23° SSW
NPP 3.9 01:32:54 10° NNE 01:38:17 65° ESE 01:41:51 21° S
Cosmos 1867 3.9 01:35:23 10° NW 01:40:53 70° NE 01:46:20 10° SE
Meteor 1-25 Rocket 4.3 01:40:41 25° SSW 01:44:14 76° WNW 01:50:07 10° N
H-2A R/B 3.9 01:41:23 10° NNE 01:45:22 52° E 01:47:47 22° S
Helios 1A Rocket 3.4 01:44:42 30° SW 01:45:54 38° W 01:49:34 10° NNW
Cosmos 1900 4.2 01:41:33 10° NW 01:46:32 85° SW 01:51:25 10° SSE
ADEOS II 3.1 01:43:23 10° NNE 01:48:20 39° E 01:52:43 13° SSE
SL-16 R/B 3.4 01:42:54 10° SE 01:48:48 50° ENE 01:54:42 10° N
Resurs 1-4 Rocket 2.4 01:45:14 10° NNE 01:50:32 62° ESE 01:54:25 18° S
Cosmos 968 Rocket 4.2 01:46:15 10° NW 01:51:00 36° WSW 01:53:23 24° SSW
Cosmos 1302 Rocket 4.0 01:48:24 24° SSW 01:51:34 89° ESE 01:56:52 10° NNE
ATLAS CENTAUR R/B 3.6 01:49:08 22° SSW 01:52:59 55° SE 02:02:16 10° ENE
IDEFIX/ARIANE 42P 2.5 01:48:13 10° NNE 01:53:26 88° ESE 01:56:54 22° SSW
Cosmos 2263 Rocket 4.3 01:51:44 10° NNW 01:56:34 29° NE 02:01:24 10° ESE
Cosmos 2369 Rocket 4.3 01:59:04 10° W 02:03:01 19° NW 02:07:00 10° N
Cosmos 1464 Rocket 4.3 01:58:46 13° S 02:04:14 63° E 02:10:17 10° NNE
Cosmos 2227 Rocket 2.7 02:00:12 10° NNW 02:05:50 64° ENE 02:11:26 10° SE
SL-8 R/B 3.6 02:02:12 10° W 02:07:00 75° S 02:11:49 10° ESE
Cosmos 44 Rocket 4.3 02:04:51 13° WSW 02:09:06 42° NW 02:13:51 10° NNE
Cosmos 1743 2.8 02:07:23 20° S 02:09:47 68° E 02:13:27 10° NNE
Cosmos 1697 Rocket 3.6 02:06:26 13° S 02:11:02 41° ESE 02:16:17 10° NE
CENTAUR R/B 4.1 02:04:24 10° NW 02:11:29 30° WSW 02:17:38 15° SSW
Meteor 1-5 Rocket 4.1 02:09:48 19° SSW 02:13:48 78° WNW 02:19:09 10° N
Cosmos 1486 Rocket 4.4 02:10:34 10° NNW 02:15:54 70° ENE 02:21:12 10° SSE
Cosmos 1066 Rocket 4.2 02:11:38 10° N 02:17:02 84° ENE 02:22:29 10° SSE
NOSS 2-1 (C) 4.5 02:15:37 12° W 02:18:04 25° NW 02:20:41 10° NNE
Cosmos 2297 Rocket 2.3 02:15:42 10° NW 02:21:17 58° WSW 02:26:48 10° S
Meteor 2-17 Rocket 4.4 02:16:58 10° NNW 02:23:08 76° W 02:29:13 10° S
Cosmos 1992 Rocket 4.0 02:20:06 17° SSW 02:24:06 87° ESE 02:29:21 10° NNE
CZ-2C R/B 2.9 02:21:11 10° N 02:25:56 71° WNW 02:29:39 16° SSW
Meteor 2-4 Rocket 3.9 02:21:29 10° NNW 02:26:40 49° W 02:31:16 13° SSW
Cosmos 304 Rocket 3.9 02:22:56 10° NNW 02:27:46 78° ENE 02:32:34 10° SSE
Cosmos 1842 3.8 02:24:49 10° N 02:28:29 54° ENE 02:32:06 10° SSE
Cosmos 2344 3.5 02:23:34 15° SW 02:30:01 79° NW 02:37:33 10° NE
COSMOS 2441 4.4 02:26:25 10° NNE 02:31:20 75° WNW 02:35:27 15° SSW
Lacrosse 4 Rocket 4.1 02:30:36 10° NW 02:32:10 12° NNW 02:33:45 10° N
Cosmos 1707 3.3 02:33:46 10° N 02:37:20 53° ENE 02:40:55 10° SSE
Lacrosse 5 rocket 3.2 02:35:40 10° WNW 02:39:10 29° N 02:42:48 10° ENE
USA 59 Rocket 1.4 02:37:55 10° W 02:40:11 19° NNW 02:42:28 10° NNE
Cosmos 1626 3.2 02:38:58 10° NW 02:41:23 21° W 02:42:44 16° SW
USA 238 DEB 3.9 02:34:44 10° NW 02:42:03 70° SW 02:49:54 10° SSE
USA 238 3.9 02:34:51 10° NW 02:42:08 70° SW 02:49:57 10° SSE
Cosmos 1515 Rocket 3.8 02:38:38 10° N 02:43:05 72° ENE 02:47:30 10° SSE
Cosmos 1656 4.1 02:39:14 14° SW 02:43:51 53° NW 02:49:18 10° NNE
Cosmos 1980 Rocket 3.4 02:39:38 10° S 02:44:48 37° ESE 02:50:00 10° NE
USA 32 4.4 02:41:18 10° NNW 02:46:20 49° W 02:51:20 10° SSW
Cosmos 1766 Rocket 3.7 02:44:24 13° SSW 02:48:16 64° WNW 02:52:39 10° N
Cosmos 1777 Rocket 4.3 02:43:37 10° NNW 02:48:51 72° ENE 02:54:01 10° SSE
Cosmos 1674 2.4 02:46:48 10° NNW 02:50:07 59° W 02:53:27 10° S
Cosmos 1400 Rocket 3.0 02:46:28 10° N 02:50:22 71° ENE 02:54:17 10° SSE
SJ 16-02 3.3 02:48:38 10° WNW 02:50:23 12° W 02:51:56 10° WSW
CZ-2C R/B 3.8 02:47:25 13° SSW 02:51:34 28° W 02:56:24 10° NNW
Cosmos 1726 1.8 02:51:38 14° SSW 02:53:59 51° WNW 02:56:57 10° N
ATLAS 5 CENTAUR R/B 2.0 02:50:39 10° NW 02:55:25 82° SW 03:01:23 10° SE
Meteor 1-28 Rocket 3.6 02:54:35 10° S 02:57:59 40° W 03:01:26 10° NNW
Cosmos 1354 Rocket 4.2 02:54:26 10° NNW 02:59:42 77° ENE 03:04:56 10° SSE
CZ-2D R/B 2.8 02:55:06 10° N 02:59:57 41° WNW 03:04:46 10° SW
ALOS 2.3 02:57:01 10° NNE 03:01:39 78° WNW 03:06:16 10° SSW
Tiangong -0.5 03:00:36 13° SW 03:02:11 17° S 03:04:21 10° SE
Cosmos 1328 Rocket 4.3 03:00:24 10° NNW 03:04:26 35° W 03:08:25 10° SSW
AQUA 4.0 03:01:59 10° N 03:06:38 57° WNW 03:11:15 10° SSW
In-Cosmos 22 4.3 03:01:51 10° N 03:07:17 80° ENE 03:12:50 10° SSE
Cosmos 371 Rocket 3.8 03:04:45 10° NW 03:09:17 40° WSW 03:13:47 10° S
Cosmos 1536 2.8 03:06:27 10° S 03:10:25 88° W 03:14:24 10° N
SAR-Lupe-1 4.4 03:06:55 10° NNE 03:10:29 68° ESE 03:14:02 10° S
Cosmos 2219 3.2 03:11:39 10° NNW 03:17:20 73° WSW 03:23:00 10° SSE
Lacrosse 5 3.4 03:15:14 10° W 03:18:07 15° WSW 03:21:00 10° SSW
FENGYUN 3A 4.4 03:13:40 10° N 03:18:43 41° WNW 03:23:46 10° SW
Cosmos 1500 Rocket 3.9 03:14:26 10° S 03:18:44 67° E 03:23:07 10° NNE
Gblst 52 Del rocket 4.3 03:14:33 10° WNW 03:20:05 83° NNE 03:26:01 10° ESE
NOSS 2-2 (C) 3.9 03:15:55 10° NW 03:20:07 86° NE 03:26:03 10° SE
USA 234 3.6 03:14:13 10° ENE 03:20:44 69° NNW 03:27:14 10° WSW
NOSS 3-4 (C) 3.3 03:16:19 10° SW 03:21:53 87° NW 03:28:04 10° NE
NOSS 3-4 (A) 3.3 03:16:48 10° SW 03:22:18 86° NW 03:28:25 10° NE
Cosmos 1733 3.0 03:19:21 10° S 03:22:51 86° E 03:26:24 10° N
NOSS 2-2 (E) 4.2 03:19:29 10° NW 03:23:32 69° NE 03:29:13 10° SE
